Погода в Ясене

Польша     51°45′10″N   15°01′13″E
темп.,
°C
ветер,
м/с
пор.,
м/с
влажн.,
%
обл.,
%
осадки,
мм/ч
давл.,
гПа
погр.,
м
27 февраля, сб
сб2701:00+3зсз499341 0.1 1032308
04:00+3зсз489538 0.0 1032376
07:00+2зсз589559 0.0 1033423
10:00+3зсз5793100 0.0 1035534
13:00+4сз4686100 0.1 1037595
16:00+5зсз568095 0.0 1036664
19:00+4зсз468492 0.0 1037435
22:00+4з478897 0.0 1038351
28 февраля, вс
вс2801:00+2з379387 0.0 1038212
04:00+1зюз379544 0.0 1037175
07:00+1зюз489270 0.0 1037283
10:00+4з478311 0.0 1036381
13:00+8з577210 0.0 1035585
16:00+9зсз46742 0.0 1034822
19:00+5зсз23903 0.0 103538
22:00+4сз22920 0.0 103522
1 марта, пн
пн101:00+3сз12930 0.0 103622
04:00+2ссз11940 0.0 103522
07:00+1з11940 0.0 103622
10:00+6зюз11780 0.0 1036240
13:00+10зюз11610 0.0 1036495
16:00+11с10580 0.0 1035522
19:00+7всв12740 0.0 103522
22:00+5ююв22810 0.0 103622
2 марта, вт
вт201:00+4ю12840 0.0 103522
04:00+3ююв11850 0.0 103422
07:00+3ю22860 0.0 103422
10:00+8ююз22650 0.0 1034261
13:00+12ю23510 0.0 1033645
16:00+13ююв23520 0.0 1031722
19:00+8ю23700 0.0 103122
22:00+6ююз23760 0.0 103235
3 марта, ср
ср301:00+5ююз34822 0.0 103185
04:00+4юз338628 0.0 103057
07:00+3юз368741 0.0 1030102
10:00+8зюз467025 0.0 1030345
13:00+13зюз455613 0.0 1028563
16:00+13з35580 0.0 1026668
19:00+8зюз237928 0.0 102625
22:00+8зюз3384100 0.0 102561